OBJECT A, 59810

Orbit data source: Space-Track

You're viewing an Uncataloged Satellite

Recently launched and/or uncataloged satellites may have evolving metadata. Metadata may include but not limited to: Owner, Maufacturer, Bus, Motor, and Mission.

OBJECT A, 59810 is a Chinese satellite in SSO that was launched on Tue, 21 May 2024 UTC via a KUAIZHOU-11 launch vehicle from the Jiuquan Satellite Launch Center, China (JSC). Unknown objects in Earth's orbit typically refer to objects detected orbiting the Earth but have not yet been identified or cataloged. These objects could be anything from previously untracked satellites, spent rocket stages, debris from satellite collisions, or even natural meteoroids temporarily captured by Earth's gravity.

Loading next visibility...
Identifier
59810, 2024-095A
Orbit
SSO
Country
Flag of CNCN / PRC
Related business
None
Manufacturer
Unknown
Mission
Operational Commercial Imaging
Bus & Motor
Unknown
Mass
Unknown
Launch date (UTC)
2024-05-21 (2 years ago)
Launch vehicle
KUAIZHOU-11
Launch site
Jiuquan Satellite Launch Center, China (JSC)
Object type
Unknown
Shape & HBR
Box + 2 Pan, 1.8 m
Radar Cross Section
1.288 m², Large (>1 m²)

Expand to show TLE details & history
Last TLE update: 9 hours ago

TLE from 9 hours ago
0 OBJECT A
1 59810U 24095A   26128.28082519  .00003604  00000-0  21954-3 0  9994
2 59810  97.5341 207.7766 0004203  81.4842 278.6865 15.11012885108110
Epoch: 2026-05-08T06:44Z
TLE epoch observation values (Epoch: 2026-05-08T06:44:23.296Z)
Latitude
0.00007°
Longitude
-119.43535°
Altitude
535.747 km
Speed
7.595 km/s
True Right ascension
13h 51m 06s
True Declination
0° 00' 00"
Sunlit
Object was in full shadow at epoch
Visualization orbit readout
Latitude
Unknown
Longitude
Unknown
Altitude
Unknown
Speed
Unknown
Apparent Right ascension
Unknown
Apparent Declination
Unknown
Sunlit
N/A
Visualization observer readout
Local Sidereal Time
23:51:45
Azimuth
Unknown
Elevation
Unknown
Doppler factor
Unknown
Orbital elements
Apogee altitude
532.997 km
Perigee altitude
527.19 km
Semi-major axis
6,908.23 km
Eccentricity
0.00042
Inclination
97.5341°
RAAN
207.7766°
Arg. of periapsis
81.4842°
True anomaly
278.63889°
Mean anomaly
278.6865°
Eccentric anomaly
278.66269°
Mean motion
3.78001 °/min
Orbital period
95.24 mins
BSTAR
0.00021954
Loading maneuver chart data...
Computing Atmospheric mass density...
Loading historical data...
Loading historical data...
Loading historical data...
Loading historical data...
Loading historical data...
Loading historical data...
Loading historical data...
Other satellites on launch #95 in the year 2024 (2024-05-21 UTC)

Documentation

Showing up to 5 results
|